Location: Austin
(30.3000°N, 97.7500°W)
Time: 00:44:50
(UTC-06:00)

CZ-4C R/B - Pass Details

Date: 04 November 2025
Orbit: 489 x 1491 km, 63.4° (Epoch: 15 November)

Event Time Altitude Azimuth Distance (km) Brightness Sun altitude
Rises 18:01:19 0° 204° (SSW) 2,559 5.4 -5.1°
Reaches altitude 10° 18:03:20 10° 202° (SSW) 1,715 4.4 -5.5°
Maximum altitude 18:07:03 74° 117° (ESE) 578 1.3 -6.3°
Drops below altitude 10° 18:11:30 10° 32° (NNE) 2,034 3.8 -7.2°
Sets 18:14:04 0° 31° (NNE) 3,091 4.7 -7.7°
